Weather History for Cloquet, MN

Change the Weather History Date:

Monday, July 8, 2013

  Actual Average Record
Temperature  
Mean Temperature 63 °F -  
Max Temperature 73 °F 73 °F 87 °F (2006)
Min Temperature 53 °F 52 °F 44 °F (2004)
Degree Days  
Heating Degree Days 2    
Growing Degree Days 13 (Base 50)    
Moisture  
Dew Point 57 °F    
Average Humidity 87    
Maximum Humidity 100    
Minimum Humidity 69    
Precipitation  
Precipitation 0.00 in - - ()
Sea Level Pressure  
Sea Level Pressure 30.01 in    
Wind  
Wind Speed 3 mph (East)    
Max Wind Speed 7 mph    
Max Gust Speed -    
Visibility 6 miles    
Events Fog , Thunderstorm    
Averages and records for this station are not official NWS values.
T = Trace of Precipitation, MM = Missing Value Source: NWS Daily Summary

Daily Weather History Graph

Daily Weather History Graph

Search for Another Location

Airport:

Trip Planner

Search our weather history database for the weather conditions in past years. The results will help you decide how hot, cold, wet, or windy it might be!

Date:

Astronomy

Jul. 08, 2013 Rise Set
Actual Time 5:25 AM CDT 9:04 PM CDT
Civil Twilight 4:46 AM CDT 9:42 PM CDT
Nautical Twilight 3:55 AM CDT 10:34 PM CDT
Astronomical Twilight 2:43 AM CDT 11:44 PM CDT
Moon 6:00 AM CDT (7/8) 8:59 PM CDT (7/8)
Length of Visible Light 16h 56m
Length of Day
15h 39m
New Moon, 0% of the Moon is Illuminated
Jul 8
New Moon
Jul 15
First Quarter
Jul 22
Full
Jul 29
Last Quarter
Aug 6
New

Hourly Weather History & Observations

Time (CDT) Temp. Dew Point Humidity Pressure Visibility Wind Dir Wind Speed Gust Speed Precip Events Conditions
12:15 AM 53.6 °F 51.8 °F 94% 29.96 in 2.5 mi ENE 5.8 mph - N/A Thunderstorm Overcast
12:36 AM 53.6 °F 53.6 °F 100% 29.96 in 3.0 mi ENE 5.8 mph - N/A   Overcast
12:56 AM 55.4 °F 53.6 °F 94% 29.98 in 3.0 mi NNW 5.8 mph - N/A   Overcast
1:16 AM 55.4 °F 53.6 °F 94% 29.97 in 3.0 mi NNE 4.6 mph - N/A   Overcast
1:36 AM 55.4 °F 53.6 °F 94% 29.97 in 5.0 mi Calm Calm - N/A   Overcast
1:56 AM 55.4 °F 53.6 °F 94% 29.99 in 1.5 mi ESE 3.5 mph - N/A   Overcast
2:16 AM 55.4 °F 53.6 °F 94% 29.99 in 1.2 mi East 4.6 mph - N/A   Overcast
2:36 AM 55.4 °F 53.6 °F 94% 29.99 in 0.5 mi Calm Calm - N/A Fog Fog
2:56 AM 55.4 °F 53.6 °F 94% 29.99 in 0.8 mi East 6.9 mph - N/A   Overcast
3:16 AM 55.4 °F 53.6 °F 94% 29.99 in 1.0 mi ENE 5.8 mph - N/A   Overcast
3:36 AM 55.4 °F 53.6 °F 94% 29.99 in 2.0 mi East 5.8 mph - N/A   Overcast
3:56 AM 55.4 °F 53.6 °F 94% 29.98 in 1.0 mi East 6.9 mph - N/A   Overcast
4:16 AM 55.4 °F 53.6 °F 94% 29.98 in 0.8 mi East 6.9 mph - N/A   Overcast
4:36 AM 55.4 °F 53.6 °F 94% 29.98 in 0.5 mi East 3.5 mph - N/A Fog Fog
4:56 AM 55.4 °F 53.6 °F 94% 29.98 in 0.8 mi East 3.5 mph - N/A   Overcast
5:16 AM 55.4 °F 53.6 °F 94% 29.99 in 0.8 mi ENE 4.6 mph - N/A   Overcast
5:36 AM 55.4 °F 53.6 °F 94% 29.99 in 0.8 mi Calm Calm - N/A   Overcast
5:56 AM 55.4 °F 53.6 °F 94% 29.99 in 2.0 mi Calm Calm - N/A   Overcast
6:16 AM 55.4 °F 53.6 °F 94% 29.99 in 0.5 mi Calm Calm - N/A Fog Fog
6:36 AM 53.6 °F 53.6 °F 100% 29.99 in 0.2 mi Calm Calm - N/A Fog Fog
6:56 AM 53.6 °F 53.6 °F 100% 30.00 in 0.2 mi Calm Calm - N/A Fog Fog
7:16 AM 55.4 °F 53.6 °F 94% 30.00 in 0.2 mi Calm Calm - N/A Fog Fog
7:36 AM 55.4 °F 53.6 °F 94% 30.00 in 0.5 mi Calm Calm - N/A Fog Fog
7:56 AM 55.4 °F 53.6 °F 94% 30.01 in 1.5 mi Calm Calm - N/A   Overcast
8:16 AM 55.4 °F 53.6 °F 94% 30.01 in 4.0 mi Calm Calm - N/A   Overcast
8:36 AM 55.4 °F 55.4 °F 100% 30.01 in 3.0 mi Calm Calm - N/A   Overcast
8:56 AM 55.4 °F 55.4 °F 100% 30.02 in 3.0 mi Calm Calm - N/A   Overcast
9:15 AM 55.4 °F 55.4 °F 100% 30.03 in 2.0 mi ESE 3.5 mph - N/A   Overcast
9:36 AM 55.4 °F 55.4 °F 100% 30.04 in 1.5 mi SE 3.5 mph - N/A   Overcast
9:56 AM 55.4 °F 55.4 °F 100% 30.04 in 2.5 mi ESE 3.5 mph - N/A   Overcast
10:15 AM 57.2 °F 55.4 °F 94% 30.04 in 4.0 mi SE 3.5 mph - N/A   Overcast
10:36 AM 57.2 °F 55.4 °F 94% 30.04 in 5.0 mi ESE 3.5 mph - N/A   Overcast
10:56 AM 57.2 °F 57.2 °F 100% 30.05 in 7.0 mi SE 3.5 mph - N/A   Overcast
11:16 AM 59.0 °F 57.2 °F 94% 30.05 in 10.0 mi East 3.5 mph - N/A   Overcast
11:36 AM 60.8 °F 57.2 °F 88% 30.05 in 10.0 mi ESE 4.6 mph - N/A   Overcast
11:55 AM 62.6 °F 57.2 °F 82% 30.05 in 10.0 mi East 4.6 mph - N/A   Overcast
12:16 PM 62.6 °F 57.2 °F 82% 30.05 in 10.0 mi Calm Calm - N/A   Overcast
12:36 PM 62.6 °F 57.2 °F 82% 30.04 in 10.0 mi Calm Calm - N/A   Overcast
12:55 PM 64.4 °F 57.2 °F 77% 30.04 in 10.0 mi ESE 3.5 mph - N/A   Overcast
1:15 PM 64.4 °F 57.2 °F 77% 30.04 in 10.0 mi ESE 3.5 mph - N/A   Overcast
1:36 PM 64.4 °F 57.2 °F 77% 30.04 in 10.0 mi Calm Calm - N/A   Overcast
1:56 PM 64.4 °F 57.2 °F 77% 30.04 in 10.0 mi Calm Calm - N/A   Overcast
2:16 PM 66.2 °F 59.0 °F 78% 30.03 in 10.0 mi Calm Calm - N/A   Overcast
2:35 PM 68.0 °F 60.8 °F 78% 30.02 in 10.0 mi East 4.6 mph - N/A   Overcast
2:56 PM 68.0 °F 60.8 °F 78% 30.04 in 10.0 mi Calm Calm - N/A   Mostly Cloudy
3:16 PM 69.8 °F 60.8 °F 73% 30.03 in 10.0 mi ESE 3.5 mph - N/A   Scattered Clouds
3:35 PM 69.8 °F 60.8 °F 73% 30.02 in 10.0 mi ENE 3.5 mph - N/A   Clear
3:56 PM 71.6 °F 62.6 °F 73% 30.02 in 10.0 mi East 3.5 mph - N/A   Clear
4:16 PM 71.6 °F 62.6 °F 73% 30.02 in 10.0 mi Calm Calm - N/A   Clear
4:35 PM 71.6 °F 62.6 °F 73% 30.02 in 10.0 mi Calm Calm - N/A   Clear
4:56 PM 71.6 °F 62.6 °F 73% 30.01 in 10.0 mi Calm Calm - N/A   Clear
5:16 PM 71.6 °F 62.6 °F 73% 30.00 in 10.0 mi Calm Calm - N/A   Clear
5:35 PM 73.4 °F 62.6 °F 69% 30.00 in 10.0 mi Calm Calm - N/A   Clear
5:56 PM 73.4 °F 62.6 °F 69% 30.00 in 10.0 mi SE 5.8 mph - N/A   Clear
6:16 PM 73.4 °F 62.6 °F 69% 29.99 in 10.0 mi Calm Calm - N/A   Clear
6:35 PM 73.4 °F 62.6 °F 69% 30.00 in 10.0 mi ESE 3.5 mph - N/A   Clear
6:56 PM 71.6 °F 62.6 °F 73% 29.99 in 10.0 mi ESE 3.5 mph - N/A   Clear
7:16 PM 71.6 °F 62.6 °F 73% 29.99 in 10.0 mi ESE 4.6 mph - N/A   Clear
7:35 PM 71.6 °F 62.6 °F 73% 30.00 in 10.0 mi SE 4.6 mph - N/A   Clear
7:56 PM 71.6 °F 62.6 °F 73% 29.99 in 10.0 mi ESE 4.6 mph - N/A   Clear
8:16 PM 71.6 °F 62.6 °F 73% 29.99 in 10.0 mi SE 4.6 mph - N/A   Clear
8:35 PM 69.8 °F 64.4 °F 83% 29.99 in 10.0 mi East 3.5 mph - N/A   Clear
8:56 PM 68.0 °F 62.6 °F 83% 29.99 in 10.0 mi ESE 3.5 mph - N/A   Clear
9:16 PM 66.2 °F 62.6 °F 88% 29.99 in 10.0 mi East 3.5 mph - N/A   Clear
9:35 PM 64.4 °F 62.6 °F 94% 30.00 in 10.0 mi Calm Calm - N/A   Clear
9:56 PM 64.4 °F 60.8 °F 88% 29.99 in 10.0 mi ESE 3.5 mph - N/A   Clear
10:16 PM 62.6 °F 60.8 °F 94% 30.00 in 10.0 mi Calm Calm - N/A   Clear
10:35 PM 62.6 °F 59.0 °F 88% 30.00 in 10.0 mi Calm Calm - N/A   Clear
10:56 PM 60.8 °F 59.0 °F 94% 30.01 in 10.0 mi Calm Calm - N/A   Clear
11:16 PM 60.8 °F 57.2 °F 88% 30.01 in 10.0 mi Calm Calm - N/A   Clear
11:35 PM 59.0 °F 57.2 °F 94% 30.02 in 7.0 mi Calm Calm - N/A   Clear
11:56 PM 57.2 °F 55.4 °F 94% 30.02 in 3.0 mi ESE 3.5 mph - N/A   Scattered Clouds